sat.trackr.live / text

‹ back to catalog

STARLINK-36195

NORAD 67124 · 2025-299Y

PAYLOAD ACTIVE UNKNOWN

§ Identity

Operator
Country
US
Launch date
2025-12-15
Launch site
AFETR
Launch vehicle
Mass (kg)
RCS (m²)

Purposes: comms

External: N2YO · Heavens-Above · Gunter

§ Orbital elements

Epoch: 2026-09-20T02:18:55.128096Z

Period
94.27 min
Inclination
43.0022°
Eccentricity
0.0001887
Mean motion
15.27590549 rev/d
Perigee alt
481.7 km
Apogee alt
484.3 km
Semi-major
6,861.2 km
B*
4.8868e-4
RAAN
150.6135°
Arg perigee
258.7301°
Mean anomaly
101.3338°
Rev number
4,285

§ Raw data

STARLINK-361951 67124U 25299Y   26263.09647139  .00013214  00000+0  48868-3 0  99922 67124  43.0022 150.6135 0001887 258.7301 101.3338 15.27590549 42859

JSON: /api/v1/satellites/67124 · /tle

For live sub-satellite position, see the globe view (requires WebGL).

§ Visibility from observer

Set your observer location to see the next 7 days of passes ≥ 10°. The values pass through the URL so the page stays shareable.

No JS? Fill the form by hand. The geolocation button needs JavaScript.